Yuma, AZ (85364)

5:01 PM MST on February 08, 2016 (GMT -0700)
Caballero Park | | Change Station
CLOSE
Current Station
Personal Weather Station
Location: Yuma, AZ
Elevation: 200 ft
Nearby Weather Stations

Elev 200 ft 32.67 °N, 114.63 °W | Updated 7 seconds ago

Clear
Clear
81.1 °F
Feels Like 79 °F
N
15.0
Wind Variable Wind from NNE
Gusts 15.0 mph

Today
High -- | Low -- °F
--% Chance of Precip.
Yesterday
High -- | Low -- °F
Precip. -- in
Pressure 30.10 in
Visibility 10.0 miles
Clouds Clear
Heat Index 79 °F
Dew Point 31 °F
Humidity 16%
Rainfall 0.00 in
Snow Depth Not available.
7:28 AM 6:17 PM
New Moon, 0% visible
METAR KNYL 082357Z 34014KT 10SM CLR 28/M06 A3011 RMK AO2 SLP193 T02781061 10283 20228 55011
Pressure 30.10 in
Visibility 10.0 miles
Clouds Clear
Heat Index 79 °F
Dew Point 31 °F
Humidity 16%
Rainfall 0.00 in
Snow Depth Not available.
7:28 AM 6:17 PM
New Moon, 0% visible
METAR KNYL 082357Z 34014KT 10SM CLR 28/M06 A3011 RMK AO2 SLP193 T02781061 10283 20228 55011

10-Day Weather Forecast

Almanac

Astronomy

Feb. 08, 2016 Rise Set
Actual Time
Civil Twilight
Nautical Twilight
Astronomical Twilight
Moon
Length of Visible Light
Length of Day
Tomorrow will be .
, % of the Moon is Illuminated

Today's Extremes

State Highs State Lows

Community

WunderPhotos

Upload Photos

1,891,527 photos uploaded!

WunderBlog® & News

Nearby

Air Quality

  Air Quality AQ Index Pollutant
Not available.

Snow Depth

Station Depth Elevation

Earthquake Activity

City Distance Mag. Time & Date
Minimum magnitude displayed is 2.5.

Coastal Water Temperatures

Place Temperature

Stations

Nearby Weather Stations

Station Location Temp. Windchill Dew Point Humidity Wind Precip. Elev Updated Type
                   

Watches & Warnings

There are currently no watches in effect.